| time (UTC) | temp F | wind direction | speed MPH | gust MPH | rain 1hr in | rain 24hr in | rain mn in | humidity % | barometer mb |
| 20260502210032 | 51 | 0 | 0.0 | 2.0 | 0.00 | 0.07 | 0.07 | 89 | 1011.2 |
| 20260502204530 | 51 | 0 | 1.0 | 3.0 | 0.00 | 0.07 | 0.07 | 88 | 1011.2 |
| 20260502203028 | 51 | 0 | 0.0 | 2.0 | 0.00 | 0.07 | 0.07 | 88 | 1011.4 |
| 20260502201530 | 52 | 0 | 0.0 | 3.0 | 0.00 | 0.07 | 0.07 | 88 | 1011.4 |
| 20260502200034 | 52 | 0 | 0.0 | 0.0 | 0.01 | 0.07 | 0.07 | 88 | 1011.4 |
| 20260502194529 | 52 | 0 | 0.0 | 0.0 | 0.01 | 0.07 | 0.07 | 88 | 1011.4 |
| 20260502193028 | 52 | 0 | 0.0 | 2.0 | 0.01 | 0.06 | 0.06 | 88 | 1011.4 |
| 20260502191530 | 52 | 0 | 0.0 | 1.0 | 0.01 | 0.06 | 0.06 | 87 | 1011.4 |
| 20260502190033 | 52 | 0 | 0.0 | 0.0 | 0.01 | 0.05 | 0.05 | 87 | 1011.5 |
| 20260502184533 | 52 | 0 | 0.0 | 2.0 | 0.01 | 0.05 | 0.05 | 87 | 1011.6 |
| 20260502183029 | 52 | 0 | 0.0 | 2.0 | 0.01 | 0.04 | 0.04 | 87 | 1011.7 |
| 20260502181534 | 53 | 0 | 0.0 | 3.0 | 0.02 | 0.04 | 0.04 | 87 | 1011.6 |
| 20260502163032 | 54 | 0 | 1.0 | 3.0 | 0.00 | 0.00 | 0.00 | 83 | 1012.1 |
| 20260502161527 | 55 | 0 | 0.0 | 2.0 | 0.00 | 0.00 | 0.00 | 83 | 1012.2 |
| 20260502151529 | 55 | 0 | 0.0 | 3.0 | 0.00 | 0.00 | 0.00 | 82 | 1012.8 |
| 20260502123028 | 59 | 83 | 3.0 | 9.0 | 0.00 | 0.00 | 0.00 | 69 | 1014.3 |
| 20260502121538 | 62 | 95 | 2.0 | 11.0 | 0.00 | 0.00 | 0.00 | 68 | 1014.2 |
| 20260502114528 | 60 | 101 | 4.0 | 12.0 | 0.00 | 0.00 | 0.00 | 70 | 1014.6 |
| 20260502113030 | 60 | 78 | 4.0 | 10.0 | 0.00 | 0.00 | 0.00 | 68 | 1014.8 |
| 20260502111532 | 61 | 82 | 4.0 | 10.0 | 0.00 | 0.00 | 0.00 | 66 | 1015.0 |
| 20260502110035 | 60 | 72 | 4.0 | 10.0 | 0.00 | 0.00 | 0.00 | 67 | 1015.2 |
| 20260502104531 | 60 | 131 | 4.0 | 11.0 | 0.00 | 0.00 | 0.00 | 68 | 1015.4 |
| 20260502103029 | 60 | 115 | 4.0 | 13.0 | 0.00 | 0.00 | 0.00 | 71 | 1015.3 |
| 20260502101530 | 60 | 92 | 5.0 | 11.0 | 0.00 | 0.00 | 0.00 | 69 | 1015.3 |
| 20260502091531 | 58 | 65 | 3.0 | 9.0 | 0.00 | 0.00 | 0.00 | 76 | 1015.4 |
| 20260502071534 | 54 | 128 | 3.0 | 8.0 | 0.00 | 0.00 | 0.00 | 86 | 1016.2 |
| 20260502070034 | 53 | 126 | 2.0 | 9.0 | 0.00 | 0.00 | 0.00 | 87 | 1016.3 |
| 20260502064531 | 53 | 114 | 3.0 | 8.0 | 0.00 | 0.00 | 0.00 | 87 | 1016.3 |
| 20260502063031 | 53 | 123 | 2.0 | 7.0 | 0.00 | 0.00 | 0.00 | 87 | 1016.3 |
| 20260502061530 | 52 | 62 | 2.0 | 7.0 | 0.00 | 0.00 | 0.00 | 87 | 1016.4 |
| 20260502060033 | 52 | 136 | 3.0 | 7.0 | 0.00 | 0.00 | 0.00 | 87 | 1016.4 |
| 20260502054541 | 52 | 87 | 2.0 | 7.0 | 0.00 | 0.00 | 0.00 | 87 | 1016.5 |
| 20260502053035 | 51 | 100 | 2.0 | 7.0 | 0.00 | 0.00 | 0.00 | 87 | 1016.4 |
| 20260502051530 | 51 | 80 | 2.0 | 8.0 | 0.00 | 0.00 | 0.00 | 88 | 1016.4 |
| 20260502050030 | 51 | 79 | 3.0 | 7.0 | 0.00 | 0.00 | 0.00 | 88 | 1016.4 |
| 20260502044532 | 50 | 80 | 1.0 | 4.0 | 0.00 | 0.00 | 0.00 | 88 | 1016.5 |
| 20260502043036 | 50 | 149 | 1.0 | 5.0 | 0.00 | 0.00 | 0.00 | 88 | 1016.4 |
| 20260502041534 | 50 | 109 | 1.0 | 7.0 | 0.00 | 0.00 | 0.00 | 88 | 1016.5 |
| 20260502040028 | 50 | 128 | 1.0 | 6.0 | 0.00 | 0.00 | 0.00 | 87 | 1016.6 |
| 20260502034528 | 51 | 108 | 2.0 | 7.0 | 0.00 | 0.00 | 0.00 | 87 | 1016.8 |
| 20260502033040 | 51 | 142 | 1.0 | 6.0 | 0.00 | 0.00 | 0.00 | 88 | 1016.9 |
| 20260502031533 | 51 | 118 | 1.0 | 4.0 | 0.00 | 0.00 | 0.00 | 87 | 1017.1 |
| 20260502030032 | 51 | 141 | 2.0 | 6.0 | 0.00 | 0.00 | 0.00 | 87 | 1017.1 |
| 20260502024532 | 51 | 0 | 1.0 | 8.0 | 0.00 | 0.00 | 0.00 | 87 | 1017.2 |
| 20260502023030 | 51 | 0 | 1.0 | 5.0 | 0.00 | 0.00 | 0.00 | 87 | 1017.2 |
| 20260502021528 | 51 | 119 | 1.0 | 4.0 | 0.00 | 0.00 | 0.00 | 87 | 1017.5 |
| 20260502020030 | 52 | 0 | 0.0 | 6.0 | 0.00 | 0.00 | 0.00 | 86 | 1017.6 |
| 20260502014529 | 52 | 114 | 2.0 | 8.0 | 0.00 | 0.00 | 0.00 | 86 | 1017.8 |
| 20260502013027 | 52 | 114 | 1.0 | 4.0 | 0.00 | 0.00 | 0.00 | 86 | 1018.1 |
| 20260502011530 | 52 | 155 | 1.0 | 4.0 | 0.00 | 0.00 | 0.00 | 86 | 1018.1 |
| 20260502010030 | 52 | 163 | 3.0 | 7.0 | 0.00 | 0.00 | 0.00 | 87 | 1018.4 |
| 20260502004549 | 52 | 0 | 1.0 | 6.0 | 0.00 | 0.00 | 0.00 | 87 | 1018.7 |
| 20260502003028 | 53 | 182 | 1.0 | 3.0 | 0.00 | 0.00 | 0.00 | 87 | 1018.8 |
| 20260502001528 | 52 | 182 | 1.0 | 4.0 | 0.00 | 0.00 | 0.00 | 87 | 1018.8 |
| 20260502000046 | 52 | 0 | 0.0 | 4.0 | 0.00 | 0.00 | 0.00 | 86 | 1018.9 |
| 20260501234532 | 52 | 186 | 0.0 | 3.0 | 0.00 | 0.00 | 0.00 | 86 | 1019.0 |
| 20260501233028 | 52 | 0 | 0.0 | 3.0 | 0.00 | 0.00 | 0.00 | 86 | 1019.0 |
| 20260501231539 | 52 | 143 | 0.0 | 3.0 | 0.00 | 0.00 | 0.00 | 86 | 1019.1 |
| 20260501230031 | 53 | 175 | 0.0 | 6.0 | 0.00 | 0.00 | 0.00 | 85 | 1019.2 |
| 20260501224527 | 53 | 105 | 1.0 | 5.0 | 0.00 | 0.00 | 0.00 | 85 | 1019.3 |
| 20260501223029 | 53 | 164 | 0.0 | 4.0 | 0.00 | 0.00 | 0.00 | 85 | 1019.3 |
| 20260501221528 | 53 | 140 | 0.0 | 6.0 | 0.00 | 0.00 | 0.00 | 85 | 1019.2 |
| 20260501220028 | 53 | 117 | 1.0 | 5.0 | 0.00 | 0.00 | 0.00 | 85 | 1019.4 |
| 20260501214530 | 53 | 0 | 1.0 | 5.0 | 0.00 | 0.00 | 0.00 | 84 | 1019.4 |
| 20260501213029 | 53 | 132 | 1.0 | 4.0 | 0.00 | 0.00 | 0.00 | 84 | 1019.6 |
| 20260501211529 | 53 | 131 | 0.0 | 2.0 | 0.00 | 0.00 | 0.00 | 84 | 1019.5 |